CW8822 Caguas PR US current weather conditions

sailwx.info

Wind from 211 at 0 knots gusting 3

Air temperature 23.3° C
Dewpoint 22.8° C

Last reported at 2014-Sep-19 06:44 UTC.
Time now 2014-Sep-19 07:53 UTC

Location: N 18°12' W 066°01'.
View on Google Maps.

See reports from other nearby stations

  
Tides and Currents Weather Stations Pressure Air Temp Water Temp Dewpoint Dewpoint Depression Visibility Wind Speed Wind Dir Waves Ship Positions
date/time (UTC)wind fromknots sea level pressurealtimeterstation pressurevisibilityair tempwater tempwave heightnotes
2014-Sep-19 06:44 211 0 gusting 3 23.3
2014-Sep-19 06:29 211 23.3
2014-Sep-19 06:14 211 0 gusting 3 23.3
2014-Sep-19 05:59 211 1 gusting 3 23.3
2014-Sep-19 05:44 211 23.3
2014-Sep-19 05:29 211 23.3
2014-Sep-19 05:14 211 23.3
2014-Sep-19 04:59 211 23.3
2014-Sep-19 04:44 211 23.3
2014-Sep-19 04:29 211 23.3
2014-Sep-19 04:14 211 22.8
2014-Sep-19 03:59 211 22.8
2014-Sep-19 03:44 210 0 gusting 5 22.8
2014-Sep-19 03:29 287 0 gusting 3 23.3
2014-Sep-19 03:14 288 22.8
2014-Sep-19 02:59 287 22.8
2014-Sep-19 02:45 135 0 gusting 2 22.8
2014-Sep-19 02:30 134 23.3
2014-Sep-19 02:13 122 22.8
2014-Sep-19 01:59 050 2 gusting 12 23.3
2014-Sep-19 01:44 062 1 gusting 4 25.0
2014-Sep-19 01:29 052 3 gusting 6 25.0
2014-Sep-19 01:13 118 25.6
2014-Sep-19 00:58 117 25.6
2014-Sep-19 00:43 118 25.6
2014-Sep-19 00:29 147 1 gusting 5 25.6
2014-Sep-19 00:14 115 1 gusting 6 26.1
2014-Sep-18 23:58 146 1 gusting 6 26.1
2014-Sep-18 23:43 128 26.1
2014-Sep-18 23:29 136 26.1
2014-Sep-18 23:13 136 26.1
2014-Sep-18 22:58 136 26.1
2014-Sep-18 22:43 137 1 gusting 4 26.7
2014-Sep-18 22:29 144 26.7
2014-Sep-18 22:13 118 0 gusting 3 26.7
2014-Sep-18 21:58 133 0 gusting 3 27.2
2014-Sep-18 21:43 130 1 gusting 6 27.2
2014-Sep-18 21:28 135 27.2
2014-Sep-18 21:14 126 27.8
2014-Sep-18 20:57 080 0 gusting 6 27.8
2014-Sep-18 20:42 097 0 gusting 6 28.3
2014-Sep-18 20:28 149 0 gusting 5 28.3
2014-Sep-18 20:13 096 0 gusting 4 28.9
2014-Sep-18 19:58 101 0 gusting 6 29.4
2014-Sep-18 19:42 059 1 gusting 7 30.0
2014-Sep-18 19:27 298 0 gusting 7 31.1
2014-Sep-18 19:13 089 0 gusting 8 31.7
2014-Sep-18 18:56 069 1 gusting 9 31.7
2014-Sep-18 18:42 113 1 gusting 5 32.2
2014-Sep-18 18:27 142 31.7
2014-Sep-18 18:12 128 31.7
2014-Sep-18 17:56 145 0 gusting 6 32.2
2014-Sep-18 17:41 113 1 gusting 6 31.1
2014-Sep-18 17:27 063 30.0
2014-Sep-18 17:12 332 0 gusting 6 31.1
2014-Sep-18 16:56 036 1 gusting 4 30.6
2014-Sep-18 16:41 350 1 gusting 5 31.7
2014-Sep-18 16:27 020 31.1
2014-Sep-18 16:12 046 31.1
2014-Sep-18 15:56 046 3 gusting 5 30.6
2014-Sep-18 15:41 115 0 gusting 3 31.1
2014-Sep-18 15:27 036 1 gusting 5 30.6
2014-Sep-18 15:11 034 2 gusting 7 30.0
2014-Sep-18 14:56 086 30.0
2014-Sep-18 14:40 019 0 gusting 4 29.4
2014-Sep-18 14:26 281 0 gusting 2 30.6
2014-Sep-18 14:11 277 30.0
2014-Sep-18 13:55 277 29.4
2014-Sep-18 13:41 277 28.3
2014-Sep-18 13:25 277 27.8
2014-Sep-18 13:10 277 0 gusting 3 27.2
2014-Sep-18 12:54 277 0 gusting 4 26.7
2014-Sep-18 12:40 232 0 gusting 3 26.1
2014-Sep-18 12:26 202 0 gusting 3 25.6
2014-Sep-18 12:10 139 0 gusting 2 25.6
2014-Sep-18 11:55 162 25.6
2014-Sep-18 11:39 162 25.0
2014-Sep-18 11:25 222 24.4
2014-Sep-18 11:09 222 23.9
2014-Sep-18 10:54 222 23.3
2014-Sep-18 10:38 222 23.3
2014-Sep-18 10:24 220 1 gusting 5 23.3
2014-Sep-18 10:08 202 1 gusting 3 23.3
2014-Sep-18 09:53 202 22.8
2014-Sep-18 09:39 202 23.3
2014-Sep-18 09:24 202 23.3
2014-Sep-18 09:08 202 0 gusting 1 23.3
2014-Sep-18 08:53 202 23.3
2014-Sep-18 08:39 202 23.9
2014-Sep-18 08:24 202 0 gusting 2 23.9
2014-Sep-18 08:08 202 23.3
2014-Sep-18 07:54 202 23.9
2014-Sep-18 07:38 202 23.9
2014-Sep-18 07:23 202 23.9
2014-Sep-18 07:09 202 23.9
2014-Sep-18 06:52 202 23.9
2014-Sep-18 06:38 202 2 gusting 4 23.9
2014-Sep-18 06:23 202 23.9
2014-Sep-18 06:08 202 23.9
2014-Sep-18 05:53 202 23.9
2014-Sep-18 05:37 202 23.9
2014-Sep-18 05:22 202 24.4
2014-Sep-18 05:08 202 24.4
2014-Sep-18 04:52 202 24.4
2014-Sep-18 04:37 202 24.4
2014-Sep-18 04:22 202 0 gusting 2 24.4
2014-Sep-18 04:08 202 25.0
2014-Sep-18 03:52 202 25.0
2014-Sep-18 03:37 202 0 gusting 3 25.0
2014-Sep-18 03:22 202 0 gusting 4 25.0
2014-Sep-18 03:06 175 1 gusting 3 25.0
2014-Sep-18 02:52 121 25.0
2014-Sep-18 02:37 121 25.0
2014-Sep-18 02:22 121 25.0
2014-Sep-18 02:06 121 25.6
2014-Sep-18 01:51 121 25.0
2014-Sep-18 01:37 121 25.0
2014-Sep-18 01:22 121 25.6
2014-Sep-18 01:06 121 25.6
2014-Sep-18 00:51 121 25.6
2014-Sep-18 00:37 121 25.6
2014-Sep-18 00:21 121 25.6
2014-Sep-18 00:06 121 0 gusting 4 25.6
2014-Sep-17 23:52 119 25.6
2014-Sep-17 23:35 149 26.1
2014-Sep-17 23:06 096 26.1
2014-Sep-17 22:50 133 26.1
2014-Sep-17 22:35 111 26.7
2014-Sep-17 22:20 100 26.7
2014-Sep-17 22:06 127 1 gusting 8 27.2
2014-Sep-17 21:51 106 0 gusting 6 27.2
2014-Sep-17 21:36 049 1 gusting 6 27.8
2014-Sep-17 21:19 068 27.8
2014-Sep-17 21:05 145 1 gusting 8 28.3
2014-Sep-17 20:51 139 1 gusting 7 27.8
2014-Sep-17 20:34 111 0 gusting 8 28.3
2014-Sep-17 20:20 059 1 gusting 6 28.9
2014-Sep-17 20:05 055 2 gusting 7 28.9
2014-Sep-17 19:50 071 0 gusting 6 29.4
2014-Sep-17 19:34 121 1 gusting 6 30.0
2014-Sep-17 19:19 067 0 gusting 6 30.0
2014-Sep-17 19:04 111 30.0
2014-Sep-17 18:50 095 0 gusting 4 30.0
2014-Sep-17 18:35 110 0 gusting 6 30.6
2014-Sep-17 18:19 101 30.6
2014-Sep-17 18:04 142 0 gusting 4 29.4
2014-Sep-17 17:49 076 0 gusting 7 30.0
2014-Sep-17 17:33 142 2 gusting 6 30.6
2014-Sep-17 17:19 128 0 gusting 6 30.0
2014-Sep-17 17:04 082 0 gusting 9 30.6
2014-Sep-17 16:50 186 0 gusting 6 30.0
2014-Sep-17 16:33 139 0 gusting 7 30.0
2014-Sep-17 16:19 148 2 gusting 6 30.6
2014-Sep-17 16:04 156 1 gusting 5 30.0
2014-Sep-17 15:48 112 0 gusting 3 30.6
2014-Sep-17 15:34 155 30.0
2014-Sep-17 15:18 145 0 gusting 6 29.4
2014-Sep-17 15:03 060 3 gusting 8 29.4
2014-Sep-17 14:48 066 0 gusting 3 30.0
2014-Sep-17 14:32 091 0 gusting 4 29.4
2014-Sep-17 14:18 061 1 gusting 5 29.4
2014-Sep-17 14:02 065 0 gusting 4 28.9
2014-Sep-17 13:48 123 0 gusting 5 28.3
2014-Sep-17 13:33 049 28.3
2014-Sep-17 13:18 148 27.8
2014-Sep-17 13:02 086 0 gusting 6 27.2
2014-Sep-17 12:47 141 26.7
2014-Sep-17 12:33 069 1 gusting 6 26.1
2014-Sep-17 12:17 130 25.6
2014-Sep-17 12:03 056 0 gusting 2 24.4
2014-Sep-17 11:47 056 23.9
2014-Sep-17 11:32 055 23.9
2014-Sep-17 11:16 149 23.9
2014-Sep-17 11:01 149 23.3
2014-Sep-17 10:47 149 0 gusting 2 23.3
2014-Sep-17 10:31 149 23.3
2014-Sep-17 10:16 201 22.8
2014-Sep-17 10:02 098 22.8
2014-Sep-17 09:46 098 23.3
2014-Sep-17 09:31 098 23.3
2014-Sep-17 09:17 098 23.3
2014-Sep-17 09:01 098 23.3
2014-Sep-17 08:46 098 23.3
2014-Sep-17 08:31 098 23.3
2014-Sep-17 08:15 098 23.3
2014-Sep-17 08:01 098 0 gusting 2 23.3
2014-Sep-17 07:46 098 23.9
2014-Sep-17 07:30 098 23.9
2014-Sep-17 07:16 098 23.9
2014-Sep-17 07:01 098 23.9